This is the latest recevied weather packets stored in our database for station/object SV9TNF-51. If no packets are shown the sender has not sent any weather packets the latest 10 day(s).
| Time | Temp. | Humidity | Pressure | Rain* | Wind** | Luminosity | Snow |
|---|---|---|---|---|---|---|---|
| 1788159761 | 28.89° C | 57% | 1013.6 hPa | 0 mm | 5.81 m/s, 323° | - | - |
| 1788159461 | 28.89° C | 56% | 1013.6 hPa | 0 mm | 6.71 m/s, 339° | - | - |
| 1788159161 | 29.44° C | 54% | 1013.6 hPa | 0 mm | 8.94 m/s, 354° | - | - |
| 1788158861 | 30° C | 53% | 1013.6 hPa | 0 mm | 3.13 m/s, 32° | - | - |
| 1788158561 | 30.56° C | 52% | 1013.6 hPa | 0 mm | 0 m/s | - | - |
| 1788158261 | 30° C | 52% | 1013.6 hPa | 0 mm | 4.47 m/s, 91° | - | - |
| 1788157961 | 31.11° C | 50% | 1013.2 hPa | 0 mm | 0 m/s | - | - |
| 1788157661 | 31.11° C | 49% | 1013.2 hPa | 0 mm | 0 m/s | - | - |
| 1788157361 | 30.56° C | 51% | 1013.2 hPa | 0 mm | 1.34 m/s, 123° | - | - |
| 1788157061 | 30° C | 51% | 1013.2 hPa | 0 mm | 0.45 m/s, 129° | - | - |
| 1788156761 | 30° C | 51% | 1013.2 hPa | 0 mm | 0 m/s | - | - |
| 1788156460 | 29.44° C | 53% | 1013.2 hPa | 0 mm | 0.45 m/s, 128° | - | - |
| 1788156160 | 28.89° C | 51% | 1013.2 hPa | 0 mm | 4.92 m/s, 305° | - | - |
| 1788155860 | 29.44° C | 47% | 1013.2 hPa | 0 mm | 0.89 m/s, 128° | - | - |
| 1788155560 | 28.89° C | 47% | 1013.2 hPa | 0 mm | 0 m/s | - | - |
| 1788155260 | 28.33° C | 47% | 1012.5 hPa | 0 mm | 0 m/s | - | - |
| 1788154960 | 27.78° C | 49% | 1012.5 hPa | 0 mm | 1.34 m/s, 131° | - | - |
| 1788154660 | 27.22° C | 50% | 1012.5 hPa | 0 mm | 1.34 m/s, 139° | - | - |
| 1788154360 | 26.67° C | 52% | 1012.5 hPa | 0 mm | 0.89 m/s, 132° | - | - |
| 1788154060 | 26.67° C | 52% | 1012.5 hPa | 0 mm | 2.68 m/s, 130° | - | - |
| 1788153759 | 25.56° C | 54% | 1012.5 hPa | 0 mm | 0 m/s | - | - |
| 1788153459 | 25° C | 59% | 1012.5 hPa | 0 mm | 0 m/s | - | - |
| 1788153159 | 24.44° C | 61% | 1012.5 hPa | 0 mm | 0.45 m/s, 139° | - | - |
| 1788152859 | 23.89° C | 61% | 1012.5 hPa | 0 mm | 0 m/s | - | - |
| 1788152559 | 24.44° C | 61% | 1012.5 hPa | 0 mm | 1.79 m/s, 148° | - | - |
* Rain latest hour (hover to see other rain measurements)
** Current wind speed in m/s (hover to see current wind gust speed)